Skip Page Navigation
NASA JPL Caltech
NASA Logo - Jet Propulsion Laboratory + View the NASA Portal
+ Center for Near-Earth Object Studies
JPL Home Earth Solar System Stars & Galaxies Technology
JPL Solar System Dynamics
BODIES ORBITS EPHEMERIDES TOOLS PHYSICAL DATA DISCOVERY FAQ SITE MAP
JPL Small-Body Database Browser
Search: [ help ]  
756 Lilliana (A908 HD)
Classification: Main-belt Asteroid          SPK-ID: 2000756
Ephemeris | Orbit Diagram | Orbital Elements | Mission Design | Physical Parameters | Discovery Circumstances | Close-Approach Data ]

[ show orbit diagram ]
Orbital Elements at Epoch 2459396.5 (2021-Jul-01.0) TDB
Reference: JPL 60 (heliocentric ecliptic J2000)
 Element Value Uncertainty (1-sigma)   Units 
e .1480684164146549 1.5542e-08  
a 3.196040197907623 1.067e-08 au
q 2.722807587005861 5.31e-08 au
i 20.34901812862606 7.0298e-07 deg
node 208.0619439840179 1.6712e-06 deg
peri 4.408732269097114 5.734e-06 deg
M 231.8909834420604 8.5833e-06 deg
tp 2460139.166736919782
(2023-Jul-13.66673692)
5.1515e-05 TDB
period 2086.972739894566
5.71
1.0451e-05
2.861e-08
d
yr
n .1724986594785072 8.638e-10 deg/d
Q 3.669272808809385 1.2249e-08 au
  Orbit Determination Parameters
   # obs. used (total)      3544  
   data-arc span      41208 days (112.82 yr)  
   first obs. used      1908-05-24  
   last obs. used      2021-03-20  
   planetary ephem.      DE441  
   SB-pert. ephem.      SB441-N16  
   condition code      0  
   norm. resid. RMS      .38485  
   source      ORB  
   producer      Otto Matic  
   solution date      2021-Jul-08 11:31:51  

Additional Information
 Earth MOID = 1.71849 au 
 Jupiter MOID = 1.29444 au 
 T_jup = 3.081 
[ show covariance matrix ]

Ephemeris | Orbit Diagram | Orbital Elements | Mission Design | Physical Parameters | Discovery Circumstances | Close-Approach Data ]

Physical Parameter Table
Parameter Symbol Value Units Sigma Reference Notes
absolute magnitude H 9.98   n/a E2021B10  
diameter diameter 64.837 km 0.499 urn:nasa:pds:neowise_diameters_albedos::2.0[mainbelt] (http://adsabs.harvard.edu/abs/2014ApJ...791..121M)  
rotation period rot_per 7.834 h n/a LCDB (Rev. 2020-October); Warner et al., 2009 Published Reference List:
[Behrend, R. (2001) Observatoire de Geneve web site, http://obswww.unige.ch/~behrend/page_cou.html]
[Behrend, R. (2002) Observatoire de Geneve web site, http://obswww.unige.ch/~behrend/page_cou.html]
[Behrend, R. (2006) Observatoire de Geneve web site, http://obswww.unige.ch/~behrend/page_cou.html]
[Pilcher, F. (2012) Minor Planet Bull. 39, 220-222.]
[Hanus, J.; Durech, J.; Oszkiewicz, D.A.; Behrend, R.; et al. (2016) Astron. Astrophys. 586, A108.]
[Behrend, R. (2018) Observatoire de Geneve web site, http://obswww.unige.ch/~behrend/page_cou.html]
[Behrend, R. (2019) Observatoire de Geneve web site, http://obswww.unige.ch/~behrend/page_cou.html]
geometric albedo albedo 0.057   0.010 urn:nasa:pds:neowise_diameters_albedos::2.0[mainbelt] (http://adsabs.harvard.edu/abs/2014ApJ...791..121M)  

756 Lilliana (A908 HD)          Discovered 1908-Apr-26 by Metcalf, J. H. at Taunton
Reference: DISCOVERY.DBLast Updated: 2003-08-29

[ show close-approach data ]
Alternate Designations
 A908 HD = 1949 HJ1 = 1966 FE 
Ephemeris | Orbit Diagram | Orbital Elements | Mission Design | Physical Parameters | Discovery Circumstances | Close-Approach Data ]
ABOUT SSD CREDITS/AWARDS PRIVACY/COPYRIGHT GLOSSARY LINKS
FirstGov 2021-Aug-04 18:29 UT
(server date/time)  
NASA Home Page
Site Manager:   Ryan S. Park
Webmaster  Alan B. Chamberlin